Showing default

MBZ-SAT, 62626

Orbit data source: Space-Track

MBZ-SAT, 62626 is a payload satellite owned by Rashid Space Ctr (AE) in SSO that was launched on Tue, 14 Jan 2025 UTC via an FALCON 9 launch vehicle from the Air Force Western Test Range (AFWTR). Payload-class satellites include a variety of spacecraft equipped with specific instruments for various scientific and technological missions. These include communications satellites like Starlink; space stations such as the ISS; scientific satellites like the Hubble; Earth observation satellites from companies like Planet Labs, Umbra, and HawkEye 360; GPS; miniature CubeSats for education and research; and military/defense satellites.

Loading next visibility...
Identifier
62626, 2025-009T
Orbit
SSO
Country
Flag of AEAE / UAE
Related business
Manufacturer
Rashid Space Ctr
Mission
Operational Civil Imaging
Bus & Motor
MBZSAT, Unknown motor
Mass
750 kg wet, ~700 kg dry
Launch date (UTC)
2025-01-14 (1 year ago)
Launch vehicle
FALCON 9
Launch site
Air Force Western Test Range (AFWTR)
Object type
Payload
Rocket body
Debris
Shape & HBR
Hex Cyl + 4 Pan, 2.3 m
Radar Cross Section
14.173 m², Large (>1 m²)

Expand to show TLE details & history
Last TLE update: 1 day ago

TLE from 1 day ago
0 MBZ-SAT
1 62626U 25009T   26103.17747577  .00000336  00000-0  19602-4 0  9999
2 62626  97.3991 182.8995 0006519 172.0638 188.0701 15.18329860 68824
Epoch: 2026-04-13T04:15Z
TLE epoch observation values (Epoch: 2026-04-13T04:15:33.906Z)
Latitude
0.00002°
Longitude
-82.3636°
Altitude
518.424 km
Speed
7.602 km/s
True Right ascension
12h 11m 35s
True Declination
0° 00' 00"
Sunlit
Object was in full shadow at epoch
Visualization orbit readout
Latitude
Unknown
Longitude
Unknown
Altitude
Unknown
Speed
Unknown
Apparent Right ascension
Unknown
Apparent Declination
Unknown
Sunlit
N/A
Visualization observer readout
Local Sidereal Time
15:02:21
Azimuth
Unknown
Elevation
Unknown
Doppler factor
Unknown
Orbital elements
Apogee altitude
512.345 km
Perigee altitude
503.367 km
Semi-major axis
6,885.993 km
Eccentricity
0.00065
Inclination
97.3991°
RAAN
182.8995°
Arg. of periapsis
172.0638°
True anomaly
188.05962°
Mean anomaly
188.0701°
Eccentric anomaly
188.06486°
Mean motion
3.79834 °/min
Orbital period
94.78 mins
BSTAR
0.000019602
Loading maneuver chart data...
Computing Atmospheric mass density...
Loading historical data...
Loading historical data...
Loading historical data...
Loading historical data...
Loading historical data...
Loading historical data...
Loading historical data...

Documentation

Showing up to 5 results
|